| time (UTC) | temp F | wind direction | speed MPH | gust MPH | rain 1hr in | rain 24hr in | rain mn in | humidity % | barometer mb |
| 20260502163037 | 59 | 355 | 7.0 | 12.0 | 0.00 | 0.00 | 0.00 | 30 | 1016.8 |
| 20260502161527 | 58 | 275 | 8.0 | 13.0 | 0.00 | 0.00 | 0.00 | 32 | 1017.1 |
| 20260502151515 | 55 | 326 | 5.0 | 13.0 | 0.00 | 0.00 | 0.00 | 36 | 1017.4 |
| 20260502123002 | 44 | 216 | 0.0 | 1.0 | 0.00 | 0.00 | 0.00 | 65 | 1018.2 |
| 20260502121502 | 40 | 216 | 0.0 | 1.0 | 0.00 | 0.00 | 0.00 | 68 | 1018.1 |
| 20260502114601 | 37 | 216 | 0.0 | 2.0 | 0.00 | 0.00 | 0.00 | 72 | 1017.9 |
| 20260502113058 | 35 | 216 | 0.0 | 2.0 | 0.00 | 0.00 | 0.00 | 76 | 1017.9 |
| 20260502111657 | 35 | 216 | 0.0 | 1.0 | 0.00 | 0.00 | 0.00 | 76 | 1017.9 |
| 20260502110056 | 34 | 216 | 0.0 | 2.0 | 0.00 | 0.00 | 0.00 | 76 | 1017.8 |
| 20260502104556 | 35 | 216 | 0.0 | 1.0 | 0.00 | 0.00 | 0.00 | 76 | 1017.8 |
| 20260502103053 | 34 | 216 | 0.0 | 2.0 | 0.00 | 0.00 | 0.00 | 74 | 1017.8 |
| 20260502101559 | 35 | 216 | 0.0 | 1.0 | 0.00 | 0.00 | 0.00 | 76 | 1017.8 |
| 20260502091517 | 36 | 216 | 0.0 | 2.0 | 0.00 | 0.00 | 0.00 | 72 | 1018.1 |
| 20260502071532 | 39 | 249 | 0.0 | 2.0 | 0.00 | 0.00 | 0.00 | 68 | 1017.9 |
| 20260502070031 | 38 | 251 | 1.0 | 2.0 | 0.00 | 0.00 | 0.00 | 70 | 1018.1 |
| 20260502064534 | 37 | 211 | 0.0 | 2.0 | 0.00 | 0.00 | 0.00 | 67 | 1018.2 |
| 20260502063027 | 40 | 211 | 0.0 | 2.0 | 0.00 | 0.00 | 0.00 | 65 | 1018.2 |
| 20260502061522 | 41 | 211 | 0.0 | 1.0 | 0.00 | 0.00 | 0.00 | 62 | 1018.2 |
| 20260502060022 | 41 | 211 | 0.0 | 1.0 | 0.00 | 0.00 | 0.00 | 64 | 1018.2 |
| 20260502054523 | 41 | 211 | 0.0 | 1.0 | 0.00 | 0.00 | 0.00 | 61 | 1018.2 |
| 20260502053021 | 40 | 211 | 0.0 | 1.0 | 0.00 | 0.00 | 0.00 | 63 | 1018.3 |
| 20260502051523 | 42 | 211 | 0.0 | 1.0 | 0.00 | 0.00 | 0.00 | 60 | 1018.1 |
| 20260502050118 | 43 | 211 | 0.0 | 0.0 | 0.00 | 0.00 | 0.00 | 58 | 1018.1 |
| 20260502044516 | 42 | 211 | 0.0 | 0.0 | 0.00 | 0.00 | 0.00 | 60 | 1018.0 |
| 20260502043016 | 41 | 211 | 0.0 | 2.0 | 0.00 | 0.00 | 0.00 | 64 | 1018.0 |
| 20260502041523 | 40 | 211 | 0.0 | 1.0 | 0.00 | 0.00 | 0.00 | 62 | 1018.0 |
| 20260502040013 | 42 | 211 | 0.0 | 1.0 | 0.00 | 0.00 | 0.00 | 61 | 1018.1 |
| 20260502034514 | 41 | 211 | 0.0 | 2.0 | 0.00 | 0.00 | 0.00 | 64 | 1018.1 |
| 20260502033017 | 42 | 211 | 0.0 | 1.0 | 0.00 | 0.00 | 0.00 | 60 | 1018.1 |
| 20260502031507 | 42 | 211 | 0.0 | 1.0 | 0.00 | 0.00 | 0.00 | 61 | 1018.1 |
| 20260502030013 | 43 | 211 | 0.0 | 1.0 | 0.00 | 0.00 | 0.00 | 56 | 1018.1 |
| 20260502024502 | 43 | 211 | 0.0 | 2.0 | 0.00 | 0.00 | 0.00 | 56 | 1018.0 |
| 20260502023058 | 44 | 211 | 0.0 | 2.0 | 0.00 | 0.00 | 0.00 | 54 | 1018.0 |
| 20260502021552 | 46 | 211 | 1.0 | 2.0 | 0.00 | 0.00 | 0.00 | 52 | 1017.8 |
| 20260502020044 | 47 | 211 | 1.0 | 2.0 | 0.00 | 0.00 | 0.00 | 48 | 1017.8 |
| 20260502014540 | 47 | 306 | 0.0 | 1.0 | 0.00 | 0.00 | 0.00 | 48 | 1017.6 |
| 20260502013036 | 49 | 306 | 0.0 | 2.0 | 0.00 | 0.00 | 0.00 | 39 | 1017.5 |
| 20260502011531 | 51 | 312 | 0.0 | 2.0 | 0.00 | 0.00 | 0.00 | 37 | 1017.4 |
| 20260502010038 | 50 | 323 | 3.0 | 7.0 | 0.00 | 0.00 | 0.00 | 34 | 1017.3 |
| 20260502004547 | 51 | 343 | 2.0 | 8.0 | 0.00 | 0.00 | 0.00 | 32 | 1017.2 |
| 20260502003029 | 51 | 355 | 4.0 | 8.0 | 0.00 | 0.00 | 0.00 | 34 | 1017.2 |
| 20260502001532 | 51 | 338 | 3.0 | 8.0 | 0.00 | 0.00 | 0.00 | 34 | 1017.2 |
| 20260502000030 | 51 | 24 | 4.0 | 9.0 | 0.00 | 0.00 | 0.00 | 32 | 1017.1 |
| 20260501234525 | 52 | 351 | 6.0 | 14.0 | 0.00 | 0.00 | 0.00 | 31 | 1017.0 |
| 20260501233026 | 51 | 339 | 7.0 | 13.0 | 0.00 | 0.00 | 0.00 | 33 | 1017.0 |
| 20260501231522 | 52 | 10 | 6.0 | 11.0 | 0.00 | 0.00 | 0.00 | 32 | 1017.1 |
| 20260501230021 | 55 | 355 | 4.0 | 12.0 | 0.00 | 0.00 | 0.00 | 28 | 1017.0 |
| 20260501224520 | 53 | 355 | 4.0 | 11.0 | 0.00 | 0.00 | 0.00 | 31 | 1017.1 |
| 20260501223022 | 55 | 13 | 5.0 | 13.0 | 0.00 | 0.00 | 0.00 | 29 | 1017.1 |
| 20260501221518 | 55 | 350 | 3.0 | 7.0 | 0.00 | 0.00 | 0.00 | 29 | 1017.0 |
| 20260501220017 | 51 | 355 | 6.0 | 11.0 | 0.00 | 0.00 | 0.00 | 33 | 1017.1 |
| 20260501214518 | 52 | 329 | 6.0 | 10.0 | 0.00 | 0.00 | 0.00 | 31 | 1017.1 |
| 20260501213029 | 54 | 11 | 4.0 | 10.0 | 0.00 | 0.00 | 0.00 | 31 | 1017.0 |
| 20260501211514 | 52 | 264 | 5.0 | 12.0 | 0.00 | 0.00 | 0.00 | 32 | 1017.1 |
| 20260501210025 | 53 | 317 | 4.0 | 12.0 | 0.00 | 0.00 | 0.00 | 32 | 1017.1 |
| 20260501204506 | 54 | 5 | 3.0 | 12.0 | 0.00 | 0.00 | 0.00 | 31 | 1017.3 |
| 20260501203005 | 55 | 257 | 4.0 | 14.0 | 0.00 | 0.00 | 0.00 | 30 | 1017.3 |
| 20260501201503 | 54 | 310 | 5.0 | 11.0 | 0.00 | 0.00 | 0.00 | 32 | 1017.4 |
| 20260501200100 | 53 | 9 | 6.0 | 12.0 | 0.00 | 0.00 | 0.00 | 32 | 1017.4 |
| 20260501194601 | 54 | 325 | 5.0 | 15.0 | 0.00 | 0.00 | 0.00 | 33 | 1017.4 |
| 20260501193114 | 53 | 340 | 5.0 | 11.0 | 0.00 | 0.00 | 0.00 | 33 | 1017.4 |
| 20260501191556 | 53 | 360 | 5.0 | 14.0 | 0.00 | 0.00 | 0.00 | 32 | 1017.4 |
| 20260501190128 | 53 | 16 | 4.0 | 15.0 | 0.00 | 0.00 | 0.00 | 32 | 1017.5 |
| 20260501184609 | 54 | 11 | 4.0 | 12.0 | 0.00 | 0.00 | 0.00 | 30 | 1017.4 |
| 20260501183052 | 53 | 355 | 5.0 | 16.0 | 0.00 | 0.00 | 0.00 | 34 | 1017.5 |
| 20260501181550 | 53 | 347 | 5.0 | 13.0 | 0.00 | 0.00 | 0.00 | 32 | 1017.6 |